Notices

What's New in latest Release from April 7th, 2021:

- Updated Glossary, including Speed of Maximum Gust, and Total Hourly Precipitation

- Updated national and regional climate services offices contacts and prices information

- Addition of station inventory lists for 1981-2010, 1971-2000, and 1961-1990 Normals.

If you haven't already, please take our survey and provide feedback about our website: https://eccc.sondage-survey.ca/f/LanguageSelection.aspx?s=442ca660-fcf1-47c0-95a9-59707d6fd709

Hourly Data Report for March 15, 2021

MIRAMICHI RCS
NEW BRUNSWICK
Current Station Operator: ECCC - MSC

47°00'34.000" N
65°27'54.000" W
33.00 m
8100989
71744
ACQ

Download Data

Hourly Data (March 2021)
Hourly Data Report for March 15, 2021
TIME
LST
Temp Definition
°C
Dew Point Definition
°C
Rel Hum Definition
%
Precip. Amount Definition
mm

Wind Dir Definition
10's deg

Wind Spd Definition
km/h
Visibility Definition
km
Stn Press Definition
kPa
Hmdx Definition


Wind Chill Definition


Weather Definition


00:00 -11.7 -17.6 62 LegendMM 29 15   100.40   -19 LegendNANA
01:00 -11.8 -17.5 62 LegendMM 30 14   100.41   -19 LegendNANA
02:00 -11.8 -18.1 60 LegendMM 30 14   100.46   -19 LegendNANA
03:00 -11.8 -18.7 57 LegendMM 31 15   100.48   -19 LegendNANA
04:00 -12.2 -19.5 55 LegendMM 31 14   100.51   -19 LegendNANA
05:00 -12.7 -19.5 56 LegendMM 31 17   100.58   -21 LegendNANA
06:00 -13.3 -20.4 55 LegendMM 31 18   100.67   -22 LegendNANA
07:00 -13.9 -21.6 52 LegendMM 31 18   100.76   -22 LegendNANA
08:00 -13.6 -22.2 48 LegendMM 32 19   100.84   -22 LegendNANA
09:00 -13.2 -23.1 43 LegendMM 32 23   100.92   -23 LegendNANA
10:00 -12.8 -24.2 38 LegendMM 31 23   100.93   -22 LegendNANA
11:00 -12.2 -23.6 38 LegendMM 32 20   100.96   -21 LegendNANA
12:00 -11.9 -23.3 38 LegendMM 32 21   100.96   -20 LegendNANA
13:00 -11.3 -22.5 39 LegendMM 32 21   100.95   -20 LegendNANA
14:00 -11.0 -22.8 37 LegendMM 33 18   100.93   -19 LegendNANA
15:00 -10.7 -22.6 37 LegendMM 31 18   100.94   -18 LegendNANA
16:00 -11.0 -22.7 38 LegendMM 32 19   101.01   -19 LegendNANA
17:00 -11.7 -23.3 38 LegendMM 32 21   101.07   -20 LegendNANA
18:00 -12.6 -23.5 40 LegendMM 32 19   101.15   -21 LegendNANA
19:00 -13.4 -23.1 44 LegendMM 31 13   101.25   -20 LegendNANA
20:00 -14.0 -22.3 49 LegendMM 30 12   101.28   -21 LegendNANA
21:00 -14.7 -22.6 51 LegendMM 26 8   101.29   -20 LegendNANA
22:00 -16.1 -22.7 56 LegendMM 27 7   101.29   -21 LegendNANA
23:00 -16.0 -22.5 57 LegendMM 26 9   101.29   -22 LegendNANA

Notes on Data Quality.

Legend

  • E = Estimated
  • M = Missing
  • NA = Not Available*
  • [empty] = Indicates an unobserved value
Date modified: